Location: Unspecified
(0.0000°N, 0.0000°E)
Time: 23:14:08
(UTC+01:00)

ATLAS 2AS CENTAUR R/B - Visible Passes

Search period start: 31 October 2014 00:00
Search period end: 10 November 2014 00:00
Orbit: 917 x 1296 km, 63.7° (Epoch: 19 October)

Date Brightness Start Highest point End Pass type
(mag) Time Alt. Az. Time Alt. Az. Time Alt. Az.
31 Oct 3.1 20:05:57 10° SW 20:12:11 58° WNW 20:19:00 10° N visible
01 Nov 5.6 05:58:11 10° NE 06:00:21 11° ENE 06:02:29 10° E visible
01 Nov 2.6 19:21:14 10° SSW 19:27:33 75° ESE 19:34:27 10° NNE visible
02 Nov 4.8 20:29:03 10° WSW 20:33:40 20° WNW 20:38:34 10° NNW visible
03 Nov 4.7 06:15:15 10° N 06:22:01 33° ENE 06:28:20 10° SE visible
03 Nov 3.9 19:43:00 10° SW 19:48:54 39° WNW 19:55:18 10° N visible
04 Nov 5.3 05:32:22 10° NNE 05:37:11 18° ENE 05:41:48 10° ESE visible
04 Nov 2.9 18:57:52 10° SSW 19:04:13 75° WNW 19:11:09 10° NNE visible
05 Nov 5.2 20:07:32 10° W 20:10:28 13° WNW 20:13:31 10° NW visible
06 Nov 3.9 05:51:23 10° N 05:58:46 47° ENE 06:05:34 10° SE visible
06 Nov 4.6 19:20:22 10° WSW 19:25:38 27° WNW 19:31:18 10° N visible
07 Nov 4.8 05:07:49 10° NNE 05:13:59 26° ENE 05:19:47 10° ESE visible
08 Nov 5.3 04:25:46 10° NE 04:29:07 13° ENE 04:32:23 10° E visible
08 Nov 2.9 06:12:28 10° NNW 06:20:08 70° WSW 06:27:11 10° SSE visible
09 Nov 3.2 05:27:47 10° NNW 05:35:29 67° ENE 05:42:33 10° SSE visible
09 Nov 5.1 18:58:13 10° WSW 19:02:25 18° WNW 19:06:51 10° NNW visible
